Location: Unspecified
(49.8670°N, 0.0000°E)
Time: 14:30:31
(UTC+00:00)

ISS - Pass Details

Date: 29 May 2019
Orbit: 408 x 418 km, 51.6° (Epoch: 25 June)

Event Time Altitude Azimuth Distance (km) Brightness Sun altitude
Rises 21:15:07 0° 287° (WNW) 2,358 1.0 -9.9°
Reaches altitude 10° 21:17:13 10° 286° (WNW) 1,495 -0.1 -10.1°
Maximum altitude 21:20:34 77° 201° (SSW) 433 -3.8 -10.5°
Enters shadow 21:23:23 14° 115° (ESE) 1,280 -1.8 -10.7°
